Temperature
6 6 6 6 6 6 6 6 6 6 6 6 6 6 6 6 6 6 6 5 5 5 5 5 5 5 5 5 5 5 5 4 4 5 4 4 4 4 4 4 4 4 4
6 6 6 6 6 6 6 6 6 6 6 6 6 6 6 6 6 5 5 5 5 5 5 5 5 5 5 5 5 4 4 4 4 4 4 4 4 3 3 3 3 3 3
6 6 6 6 6 6 6 6 6 6 6 6 5 5 5 5 5 5 5 5 4 4 4 4 4 4 4 4 4 4 4 4 3 3 3 3 3 3 2 2 2 2 2
5 5 5 5 5 5 5 5 5 5 5 5 5 5 5 5 5 5 5 4 4 4 4 4 4 4 4 4 3 3 3 3 3 3 3 3 2 2 2 2 2 1 1
5 5 5 5 5 5 5 5 5 5 5 5 5 5 5 5 4 4 4 4 4 4 3 3 3 3 3 3 3 3 3 2 2 2 2 2 2 1 1 1 1 1 1
5 5 5 4 4 4 4 4 4 4 4 4 4 4 4 4 4 4 4 3 3 3 3 3 3 3 3 3 2 2 2 2 2 2 2 1 1 1 0 0 0 -0 0
5 4 4 4 4 4 4 4 4 4 4 4 4 4 4 4 3 3 3 3 3 3 3 3 3 2 2 2 2 2 2 1 1 1 1 1 0 0 -0 -0 -1 -1 -1
4 4 4 4 4 4 4 4 4 4 4 4 3 3 3 3 3 3 3 3 3 3 2 2 2 2 2 2 2 1 1 1 1 0 0 0 -0 -0 -0 -1 -1 -1 -1
4 4 4 4 3 3 4 4 4 3 3 3 3 3 3 3 3 2 2 2 2 2 2 2 2 2 1 1 1 1 1 1 0 -0 -0 -0 -0 -1 -1 -1 -1 -2 -2
3 3 3 3 3 3 3 3 3 3 3 3 3 2 2 2 2 2 2 2 2 2 1 1 1 1 1 1 0 0 0 0 -0 -0 -1 -1 -1 -1 -1 -1 -2 -2 -2
3 3 3 3 3 3 3 3 2 2 2 2 2 2 2 2 2 1 1 1 1 1 1 1 1 0 0 -0 -0 -0 -0 -1 -1 -1 -1 -1 -1 -1 -2 -2 -2 -2 -3
3 3 2 2 2 2 2 2 2 2 2 2 2 2 2 1 1 1 1 1 0 0 0 0 -0 -0 -1 -1 -1 -1 -1 -1 -2 -2 -2 -2 -2 -2 -2 -2 -3 -3 -3
2 2 2 2 2 2 2 2 1 1 1 1 1 1 1 1 1 1 0 0 -0 -0 -0 -1 -1 -1 -1 -1 -1 -2 -2 -2 -2 -2 -2 -2 -3 -3 -3 -3 -3 -3 -4
2 2 2 1 1 1 1 1 1 1 0 0 0 0 0 0 0 0 -0 -0 -1 -1 -1 -1 -1 -1 -2 -2 -2 -2 -2 -2 -3 -3 -3 -3 -3 -3 -4 -4 -4 -4 -4
1 1 1 1 1 1 1 1 0 0 -0 -0 -0 -0 -0 -0 -0 -0 -1 -1 -1 -1 -2 -2 -2 -2 -2 -2 -2 -2 -3 -3 -3 -3 -3 -4 -4 -4 -4 -4 -4 -5 -5
1 1 1 0 0 0 -0 0 0 -0 -0 -1 -1 -1 -1 -1 -1 -1 -1 -1 -2 -2 -2 -2 -2 -2 -3 -3 -3 -3 -3 -3 -3 -4 -4 -4 -4 -4 -5 -5 -5 -6 -6
0 0 0 -0 -0 -1 -1 -1 -1 -1 -1 -1 -1 -1 -1 -1 -1 -2 -2 -2 -2 -2 -3 -3 -3 -3 -3 -3 -4 -4 -4 -4 -4 -4 -5 -5 -5 -5 -5 -6 -6 -6 -6
-0 -0 -0 -1 -1 -1 -1 -1 -1 -1 -1 -1 -1 -2 -2 -2 -2 -2 -2 -2 -3 -3 -3 -3 -3 -3 -4 -4 -4 -4 -5 -5 -5 -5 -5 -5 -5 -6 -6 -6 -6 -7 -7
-1 -1 -1 -1 -1 -2 -2 -2 -2 -2 -2 -2 -2 -2 -2 -2 -3 -3 -3 -3 -3 -3 -3 -4 -4 -4 -4 -4 -5 -5 -5 -5 -5 -5 -5 -6 -6 -6 -6 -7 -7 -7 -7
-1 -1 -2 -2 -2 -2 -2 -2 -2 -2 -2 -3 -3 -3 -3 -3 -3 -3 -3 -4 -4 -4 -4 -4 -4 -4 -5 -5 -5 -5 -5 -5 -6 -6 -6 -6 -6 -6 -7 -7 -7 -8 -8
-2 -2 -2 -2 -3 -3 -3 -3 -3 -3 -3 -3 -3 -3 -3 -4 -4 -4 -4 -4 -4 -4 -4 -4 -5 -5 -5 -5 -5 -5 -6 -6 -6 -6 -6 -6 -7 -7 -7 -8 -8 -8 -8
-2 -3 -3 -3 -3 -3 -3 -3 -3 -3 -4 -4 -4 -4 -4 -4 -4 -4 -4 -4 -5 -5 -5 -5 -5 -5 -5 -5 -6 -6 -6 -6 -6 -6 -7 -7 -7 -7 -8 -8 -8 -8 -8
-3 -3 -3 -3 -4 -4 -4 -4 -4 -4 -4 -4 -4 -4 -5 -5 -5 -5 -5 -5 -5 -5 -5 -5 -5 -6 -6 -6 -6 -6 -6 -6 -7 -7 -7 -7 -7 -8 -8 -8 -8 -8 -8
-4 -4 -4 -4 -4 -4 -4 -4 -4 -4 -5 -5 -5 -5 -5 -5 -5 -5 -5 -5 -5 -5 -5 -6 -6 -6 -6 -6 -6 -7 -7 -7 -7 -7 -7 -8 -8 -8 -8 -8 -8 -9 -9
-4 -4 -4 -5 -5 -5 -5 -5 -5 -5 -5 -5 -5 -5 -6 -6 -6 -6 -5 -6 -6 -6 -6 -6 -6 -6 -7 -7 -7 -7 -7 -7 -7 -7 -8 -8 -8 -8 -8 -8 -9 -9 -9
-5 -5 -5 -5 -5 -5 -5 -5 -5 -6 -6 -6 -6 -6 -6 -6 -6 -6 -6 -6 -6 -6 -6 -7 -7 -7 -7 -7 -7 -7 -7 -8 -8 -8 -8 -8 -8 -8 -9 -9 -9 -9 -9
Wind_Speed
2 2 2 1 1 2 2 2 2 2 3 3 4 4 4 4 4 4 4 4 4 4 4 5 5 4 4 3 3 3 3 3 5 4 2 1 2 3 4 6 7 7 9
2 2 2 2 1 1 2 2 2 3 3 3 3 4 4 4 4 5 5 5 5 5 5 5 6 4 5 4 4 4 4 4 4 5 3 2 3 3 3 4 6 7 9
1 2 2 2 2 2 2 2 3 3 3 3 3 4 4 4 5 5 5 5 6 6 6 6 6 6 6 5 5 5 4 4 3 4 4 2 2 2 2 3 4 5 7
2 2 3 3 3 2 2 2 2 2 3 3 4 4 4 4 5 5 5 5 5 5 6 6 6 7 7 6 5 5 4 4 3 4 4 3 3 3 2 3 4 3 4
2 2 3 2 2 2 2 2 2 2 3 3 3 4 4 4 5 5 5 5 6 6 6 6 7 8 8 7 6 5 5 4 4 4 4 3 3 3 3 3 4 3 4
2 2 2 2 2 2 2 2 2 2 3 3 4 4 4 4 6 7 6 5 5 6 6 6 6 7 8 9 9 8 7 6 6 5 5 6 6 4 3 3 3 3 4
2 2 2 3 3 3 3 3 3 3 3 3 4 4 4 5 6 7 7 5 5 6 6 6 5 6 7 6 7 7 7 9 9 6 7 7 5 5 4 4 4 4 5
2 2 2 2 3 3 3 4 4 3 4 4 4 4 4 5 7 7 7 5 4 5 6 6 6 5 6 6 5 6 6 7 8 6 6 6 5 4 5 5 5 4 4
3 3 2 2 3 3 4 4 3 3 4 4 4 4 5 5 6 6 5 3 4 5 5 5 5 5 8 8 6 6 6 5 7 9 8 7 7 7 5 2 2 3 5
3 3 3 2 3 4 4 3 3 3 4 4 4 4 5 5 6 6 5 3 3 4 4 4 6 6 7 8 6 6 6 6 4 3 4 5 6 7 8 5 4 4 3
3 3 3 3 3 3 3 3 3 3 3 3 4 4 4 5 6 7 6 3 3 3 3 3 4 7 8 8 7 5 7 5 3 3 3 3 2 3 3 4 4 4 4
3 3 3 3 3 2 2 3 3 3 3 4 4 4 4 4 5 6 8 7 5 3 4 3 4 7 8 8 6 6 6 4 2 2 2 2 2 2 2 2 4 5 5
3 3 3 3 2 2 2 3 2 2 3 3 3 4 4 3 4 6 8 7 7 4 3 4 5 5 5 4 5 5 3 2 2 2 3 3 2 2 1 1 2 3 4
3 4 3 3 3 2 2 2 2 3 3 3 4 4 4 3 3 3 3 4 5 4 3 3 4 4 3 3 3 2 2 2 2 3 2 2 1 1 1 1 1 1 2
4 3 3 3 3 3 2 2 3 3 4 4 4 4 4 5 5 6 4 3 3 3 2 1 1 1 1 1 1 1 1 1 2 1 1 1 1 1 2 1 1 2 3
3 3 3 2 3 3 3 3 4 5 6 6 6 5 5 6 7 6 6 6 5 4 2 2 2 2 3 3 2 2 2 2 2 2 2 2 2 2 2 2 2 2 3
3 4 3 3 3 3 3 3 4 5 5 6 6 6 6 6 6 6 6 6 5 4 2 3 3 3 3 3 2 3 3 2 2 2 2 2 2 2 2 2 2 3 3
4 4 4 3 3 3 3 3 4 4 5 4 5 6 6 6 6 5 5 3 3 3 2 3 3 3 3 3 3 3 3 2 2 2 2 3 3 3 3 3 3 3 3
4 4 3 3 3 3 3 3 4 4 4 4 3 4 5 5 5 4 3 2 3 3 3 3 3 3 3 3 3 3 3 3 2 2 3 3 3 3 3 3 3 5 4
4 6 5 4 4 4 3 3 4 4 4 4 4 3 2 2 2 2 2 2 3 3 3 3 3 3 3 3 3 3 3 2 3 3 3 3 3 3 4 4 4 3 3
4 5 5 4 4 4 4 4 4 4 4 4 4 4 5 3 3 3 3 3 3 3 3 3 3 2 2 2 2 3 3 3 3 3 3 3 3 3 3 3 3 4 3
4 4 4 4 4 4 4 4 4 4 5 5 4 4 6 3 3 3 3 3 3 2 2 2 2 2 2 2 3 3 3 3 3 3 3 3 3 3 3 3 3 3 3
4 4 4 4 4 5 5 4 4 4 4 4 4 3 3 3 3 3 3 3 2 2 2 1 1 1 1 2 2 3 3 3 3 3 3 3 3 3 3 4 4 4 4
4 4 4 4 4 4 4 4 4 4 4 4 4 4 3 3 3 3 3 2 2 2 2 2 2 2 2 2 2 3 3 4 4 3 4 4 4 4 4 4 4 5 4
4 4 4 4 4 4 4 4 4 4 4 4 4 3 3 3 3 3 2 2 2 2 2 2 1 1 2 2 3 3 4 5 5 4 4 4 4 5 4 4 4 4 4
4 4 4 4 4 4 4 4 4 4 4 4 3 3 3 3 3 3 2 2 2 2 2 2 1 2 2 3 3 4 5 6 7 7 5 4 4 4 4 4 4 4 4
Wind_Direction
197 185 185 198 184 178 187 196 200 198 193 196 200 201 203 205 207 208 214 211 216 222 225 225 228 224 220 220 221 225 231 220 243 269 263 243 233 240 260 265 275 271 268
198 186 197 206 192 194 206 205 197 203 202 204 206 210 213 210 209 213 219 220 220 224 227 227 230 226 223 222 219 225 231 229 230 258 273 258 247 240 241 259 275 274 271
209 196 206 201 203 213 219 212 202 208 210 207 209 218 222 221 220 222 222 226 228 228 225 227 229 221 228 226 223 226 231 238 229 241 262 258 254 249 256 275 275 276 279
209 203 211 217 219 231 244 233 220 214 218 221 223 225 227 230 232 230 228 232 237 237 231 227 227 223 224 221 225 227 225 230 233 236 251 255 257 256 240 261 278 270 278
206 218 226 226 219 236 250 247 237 232 235 230 229 232 231 231 231 231 232 235 238 244 241 233 231 227 224 223 225 220 217 225 231 238 247 257 256 255 249 240 261 282 283
238 231 228 224 226 232 240 247 243 243 243 237 231 229 234 241 242 241 241 240 240 239 241 238 235 229 228 235 238 235 227 224 226 234 246 247 252 249 246 245 258 288 289
253 240 225 221 227 228 235 237 235 232 236 240 239 234 239 244 245 246 245 245 241 240 237 234 239 234 230 225 238 246 252 251 243 236 239 243 245 236 230 242 243 252 262
275 259 244 233 237 235 233 238 239 236 233 236 239 240 245 250 249 251 254 252 247 242 235 229 230 229 226 222 224 233 240 246 247 245 239 241 244 230 222 229 237 257 275
290 275 268 248 245 243 243 246 247 243 245 243 239 240 246 256 249 248 250 248 250 248 240 232 230 228 236 231 225 231 244 255 257 252 253 259 260 259 253 236 235 257 281
294 289 283 266 253 250 247 251 255 248 247 250 253 248 245 253 254 247 242 236 248 254 249 240 240 241 241 234 223 222 238 248 243 250 258 267 257 254 253 230 216 236 262
302 297 285 270 260 256 255 254 253 253 251 251 258 260 253 254 254 244 240 237 241 251 254 253 248 250 249 245 241 233 241 250 239 225 234 243 246 241 242 236 224 224 241
312 299 287 276 274 272 256 255 247 244 247 252 259 268 262 256 254 248 244 245 254 251 256 258 254 249 250 251 250 248 249 255 234 231 242 243 243 245 247 242 251 250 249
311 301 296 291 279 265 255 257 260 248 247 254 255 263 275 269 261 258 249 252 256 259 259 263 264 259 260 256 250 248 244 227 223 239 243 245 234 227 233 257 271 273 279
300 296 295 292 289 282 274 258 253 253 250 252 256 262 272 278 269 255 244 253 255 262 268 263 262 261 264 260 257 249 231 225 230 236 246 251 251 243 254 250 260 276 290
297 293 293 290 285 286 280 268 261 258 248 253 254 251 255 265 265 263 260 250 246 248 264 272 267 269 242 242 242 236 231 229 243 233 235 257 265 260 270 252 261 275 268
293 292 287 286 287 282 285 299 286 272 281 276 270 267 264 267 277 271 268 268 263 252 258 237 237 236 239 237 236 241 241 237 235 221 226 235 247 256 266 267 262 264 265
286 288 286 281 281 282 283 285 296 305 292 286 283 284 282 283 279 273 269 269 261 247 246 231 234 231 234 231 231 235 239 235 218 211 222 230 234 245 248 258 263 264 264
288 285 282 277 273 273 270 271 272 281 296 300 290 286 290 291 288 284 283 287 265 251 236 232 236 232 227 224 229 237 235 223 217 221 224 227 228 234 241 250 253 254 260
290 285 278 277 275 272 271 271 270 270 276 286 296 299 296 294 294 294 293 263 248 252 246 241 237 229 226 223 224 229 228 226 227 225 226 227 229 232 240 244 251 258 265
285 280 283 280 279 277 273 271 271 271 274 276 277 282 295 298 280 280 281 270 262 258 252 248 245 234 224 219 217 219 223 224 225 230 232 233 233 234 241 245 247 250 254
289 289 288 284 275 271 270 268 268 271 273 275 273 274 279 267 261 264 270 267 264 262 260 256 249 234 224 219 219 221 226 230 231 234 235 237 236 239 240 241 246 247 250
285 284 280 276 277 275 274 270 269 270 270 273 278 279 280 276 261 262 265 270 273 272 266 252 238 226 216 217 220 228 235 238 235 231 238 241 237 237 238 238 244 245 241
285 283 286 284 281 282 283 271 266 264 266 268 271 273 272 266 265 266 271 278 282 282 284 271 257 253 252 248 239 230 236 240 237 231 238 239 234 233 235 238 240 244 245
285 280 280 283 283 279 276 274 271 270 269 268 269 271 270 268 268 272 275 280 286 288 284 279 269 257 257 276 257 246 241 242 243 242 234 233 232 235 237 239 240 240 243
291 288 281 276 277 280 280 277 275 272 271 270 270 273 276 278 279 279 279 280 287 283 284 288 275 265 262 267 265 260 260 265 265 255 237 229 228 231 235 239 242 244 247
292 289 284 280 277 277 276 275 275 274 272 271 269 269 271 272 275 276 275 275 277 273 276 287 283 281 278 275 264 264 269 272 270 268 252 227 224 229 230 238 239 239 242
Height
1484 1485 1485 1486 1486 1486 1487 1487 1488 1488 1489 1489 1490 1491 1491 1492 1493 1493 1494 1494 1495 1495 1496 1496 1496 1497 1498 1499 1500 1500 1500 1500 1499 1498 1499 1499 1499 1499 1498 1498 1497 1496 1496
1482 1483 1483 1484 1484 1484 1484 1485 1485 1485 1486 1486 1487 1487 1488 1488 1489 1489 1490 1490 1490 1490 1491 1491 1492 1492 1493 1494 1494 1495 1495 1495 1495 1493 1493 1493 1493 1493 1493 1492 1492 1491 1490
1480 1480 1481 1481 1481 1481 1482 1482 1482 1482 1483 1483 1483 1484 1484 1484 1485 1485 1485 1486 1486 1486 1486 1486 1487 1487 1487 1488 1489 1489 1490 1490 1489 1489 1488 1488 1488 1488 1487 1487 1486 1485 1485
1478 1478 1478 1479 1479 1479 1479 1479 1479 1479 1479 1479 1480 1480 1480 1481 1481 1481 1481 1481 1481 1481 1481 1481 1481 1482 1482 1483 1483 1484 1484 1484 1484 1483 1483 1482 1482 1482 1481 1481 1480 1479 1479
1475 1475 1475 1476 1476 1476 1476 1475 1476 1476 1476 1476 1476 1476 1476 1477 1477 1476 1476 1476 1476 1475 1475 1475 1476 1476 1476 1477 1477 1478 1478 1478 1478 1478 1477 1476 1476 1476 1476 1475 1474 1473 1473
1473 1472 1473 1473 1472 1472 1472 1472 1472 1472 1472 1472 1472 1472 1472 1472 1472 1472 1471 1471 1470 1469 1469 1469 1469 1470 1470 1471 1471 1472 1473 1473 1472 1472 1471 1471 1470 1470 1470 1470 1469 1468 1467
1470 1469 1469 1469 1469 1469 1469 1468 1468 1468 1468 1468 1467 1467 1467 1467 1467 1466 1466 1465 1464 1464 1463 1463 1463 1464 1465 1465 1465 1466 1466 1466 1467 1467 1466 1465 1465 1465 1465 1464 1464 1463 1462
1467 1466 1466 1466 1466 1465 1465 1465 1464 1464 1464 1463 1463 1463 1462 1462 1462 1461 1460 1459 1459 1458 1458 1458 1458 1458 1459 1459 1459 1459 1460 1460 1461 1461 1461 1460 1460 1460 1460 1459 1458 1458 1457
1464 1464 1463 1463 1462 1462 1461 1461 1460 1460 1459 1459 1459 1458 1458 1457 1457 1456 1455 1454 1453 1453 1453 1453 1453 1452 1453 1453 1453 1453 1453 1454 1455 1455 1455 1455 1455 1454 1454 1454 1453 1452 1450
1462 1461 1461 1460 1459 1458 1458 1457 1457 1456 1455 1455 1454 1454 1454 1453 1452 1451 1451 1449 1448 1448 1447 1447 1447 1447 1447 1447 1448 1447 1447 1448 1449 1448 1449 1449 1449 1449 1449 1448 1448 1447 1445
1459 1458 1458 1457 1456 1455 1454 1454 1453 1452 1451 1451 1450 1450 1449 1449 1448 1447 1446 1445 1444 1443 1442 1442 1442 1442 1442 1442 1443 1443 1443 1443 1443 1443 1443 1443 1443 1443 1443 1443 1442 1442 1441
1456 1455 1454 1453 1452 1452 1451 1450 1449 1448 1447 1446 1446 1445 1445 1444 1444 1443 1442 1441 1440 1439 1438 1438 1438 1438 1438 1438 1438 1438 1438 1438 1438 1438 1438 1438 1438 1438 1438 1437 1437 1436 1436
1453 1452 1450 1450 1449 1448 1447 1446 1445 1444 1443 1442 1441 1441 1440 1440 1439 1438 1437 1437 1436 1435 1434 1434 1434 1434 1434 1433 1434 1434 1434 1434 1434 1433 1433 1433 1433 1433 1433 1432 1432 1431 1431
1449 1448 1447 1446 1445 1444 1443 1442 1441 1440 1439 1438 1438 1437 1436 1435 1434 1434 1433 1432 1431 1430 1430 1430 1430 1429 1429 1429 1429 1429 1429 1429 1429 1429 1429 1428 1428 1428 1428 1427 1427 1426 1425
1446 1445 1444 1443 1442 1441 1440 1439 1438 1437 1436 1435 1434 1433 1432 1431 1430 1430 1429 1428 1427 1426 1426 1425 1425 1425 1425 1425 1425 1425 1425 1426 1425 1425 1424 1424 1424 1424 1424 1423 1422 1421 1420
1443 1442 1440 1439 1438 1437 1436 1435 1434 1433 1432 1431 1430 1430 1428 1428 1427 1426 1425 1424 1423 1423 1422 1421 1421 1421 1421 1421 1421 1421 1421 1421 1421 1421 1421 1421 1420 1420 1419 1418 1418 1417 1416
1440 1438 1437 1436 1435 1434 1432 1431 1430 1429 1428 1427 1426 1425 1424 1423 1422 1421 1420 1419 1419 1418 1417 1417 1417 1417 1417 1417 1417 1417 1417 1417 1417 1417 1417 1416 1416 1416 1415 1414 1414 1413 1412
1436 1435 1433 1432 1431 1430 1429 1428 1427 1425 1423 1422 1421 1420 1419 1418 1417 1416 1416 1415 1414 1413 1413 1413 1413 1413 1413 1413 1413 1413 1413 1413 1413 1413 1413 1413 1412 1412 1411 1411 1410 1410 1409
1432 1431 1429 1428 1427 1426 1425 1424 1423 1421 1420 1418 1417 1416 1415 1414 1413 1412 1411 1411 1409 1409 1409 1409 1409 1409 1409 1409 1410 1409 1409 1409 1409 1409 1409 1409 1408 1408 1407 1407 1407 1406 1405
1428 1426 1425 1424 1422 1421 1420 1419 1418 1417 1416 1414 1413 1412 1411 1410 1408 1408 1407 1407 1406 1405 1405 1405 1405 1405 1405 1405 1405 1405 1405 1405 1405 1405 1405 1404 1404 1404 1403 1403 1403 1402 1402
1423 1422 1421 1419 1418 1417 1416 1415 1414 1413 1411 1410 1409 1408 1407 1406 1405 1404 1403 1403 1402 1402 1401 1401 1401 1401 1401 1401 1401 1401 1401 1401 1401 1401 1400 1400 1400 1400 1399 1399 1399 1398 1398
1419 1417 1416 1415 1413 1412 1411 1410 1409 1408 1407 1406 1405 1404 1403 1402 1401 1401 1400 1399 1399 1398 1398 1397 1397 1397 1397 1397 1397 1397 1397 1396 1396 1396 1396 1396 1396 1395 1395 1395 1395 1394 1394
1414 1413 1411 1410 1409 1408 1407 1406 1405 1404 1403 1402 1401 1400 1399 1398 1398 1397 1396 1396 1395 1394 1394 1394 1393 1393 1393 1393 1393 1393 1393 1392 1392 1392 1392 1392 1392 1391 1391 1391 1391 1391 1390
1409 1408 1406 1405 1404 1403 1402 1401 1400 1399 1398 1398 1397 1396 1395 1394 1394 1393 1393 1392 1392 1391 1390 1390 1389 1389 1389 1389 1389 1389 1389 1388 1388 1388 1388 1388 1387 1387 1387 1387 1387 1387 1387
1405 1403 1402 1401 1399 1398 1397 1397 1396 1395 1394 1394 1393 1392 1391 1391 1390 1390 1389 1389 1388 1387 1387 1386 1386 1386 1385 1385 1385 1385 1385 1384 1384 1384 1384 1384 1384 1384 1384 1383 1383 1383 1383
1400 1399 1398 1396 1395 1394 1393 1392 1392 1391 1390 1390 1389 1388 1388 1387 1387 1386 1385 1385 1385 1384 1384 1383 1383 1383 1382 1382 1382 1381 1381 1381 1381 1381 1380 1380 1380 1380 1380 1380 1380 1380 1379